Terminal Aerodrome Forecast
Issued by NWS Pittsburgh, PA

Current Version | Previous Version | Text Only | Print | Product List | Glossary Off
Versions: 1 2 3 4 5 6 7 8 9 10 11 12 13 14 15 16 17 18 19 20 21 22 23 24 25 26 27 28 29 30

000
FTUS41 KPBZ 311739
TAFPIT
TAF
KPIT 311739Z 3118/0124 27010G16KT P6SM SCT060
     FM312100 27006KT P6SM SCT250
     FM011700 29010G16KT P6SM SCT080=

USA.gov is the U.S. government's official web portal to all federal, state and local government web resources and services.